Home > Weather > Pointe-à-Pitre > Past weeks

Flag for Guadeloupe Weather for the Past 2 Weeks in Pointe-à-Pitre, Guadeloupe

Now
82 °F

Scattered clouds.


Feels Like: 87 °F
Forecast: 69 / 84 °F
Wind: 12 mph from Southeast

Location: Le Raizet - Guadeloupe

Current Time: Feb 6, 2016 at 9:38:38 AM

Latest Report: Feb 6, 2016 at 9:00 AM


Visibility: N/A

Pressure: 30.09 "Hg

Humidity: 70%

Dew point: 72 °F

Location of Pointe-à-PitreLocation

Historic Weather in Pointe-à-Pitre — Graph

°F

Pointe-à-Pitre Temperature Yesterday

Maximum temperature yesterday: 84 °F (at 12:30 PM)
Minimum temperature yesterday: 66 °F (at 3:00 AM)
Average temperature yesterday: 75 °F

High & Low Weather Summary for the Past Weeks

 TemperatureHumidityPressure
High86 °F (Feb 3, 11:00 AM)100% (Feb 2, 5:00 AM)30.15 "Hg (Feb 2, 5:00 AM)
Low66 °F (Feb 5, 3:00 AM)45% (Jan 23, 2:00 PM)29.86 "Hg (Feb 4, 2:30 AM)
Average77 °F75%30.02 "Hg
* Reported Jan 22 8:00 AM — Feb 6 8:30 AM, Pointe-à-Pitre, Weather by CustomWeather, © 2016

Note: Actual official high and low records may vary slightly from our data, if they occured in-between our weather recording intervals... More about our weather records

Advertising

Pointe-à-Pitre Weather History for the Previous 24 Hours

 ConditionsComfort  
Time TempWeatherWind HumidityBarometerVisibility
8:30 AM
Sat, Feb 6
81 °FPartly sunny.9 mph70%30.09 "HgN/A
8:00 AM81 °FPassing clouds.9 mph70%30.07 "HgN/A
7:30 AM79 °FClear.8 mph70%30.07 "HgN/A
7:00 AM77 °FClear.9 mph74%30.07 "HgN/A
6:30 AM77 °FClear.14 mph74%30.04 "HgN/A
6:00 AM77 °FPassing clouds.7 mph74%30.04 "HgN/A
5:30 AM77 °FPassing clouds.7 mph69%30.04 "HgN/A
5:00 AM75 °FMostly cloudy.3 mph83%30.01 "HgN/A
4:30 AM75 °FPassing clouds.3 mph83%30.01 "HgN/A
4:00 AM75 °FClear.2 mph83%30.01 "HgN/A
3:30 AM75 °FClear.2 mph83%30.01 "HgN/A
3:00 AM75 °FClear.6 mph83%30.01 "HgN/A
2:30 AM77 °FClear.10 mph79%30.01 "HgN/A
2:00 AM77 °FPassing clouds.9 mph79%30.04 "HgN/A
1:30 AM77 °FPassing clouds.12 mph79%30.04 "HgN/A
1:00 AM77 °FMostly cloudy.10 mph79%30.04 "HgN/A
12:00 AM77 °FWarm.8 mph79%30.07 "HgN/A
11:30 PM
Fri, Feb 5
77 °FWarm.9 mph79%30.07 "HgN/A
11:00 PM77 °FWarm.12 mph74%30.07 "HgN/A
10:00 PM77 °FPassing clouds.10 mph74%30.07 "HgN/A
9:00 PM77 °FMostly cloudy.9 mph74%30.04 "HgN/A
8:30 PM77 °FMostly cloudy.13 mph74%30.04 "HgN/A
8:00 PM77 °FMostly cloudy.16 mph79%30.04 "HgN/A
7:30 PM77 °FPassing clouds.16 mph79%30.01 "HgN/A
7:00 PM77 °FPassing clouds.14 mph74%30.01 "HgN/A
6:30 PM77 °FPassing clouds.17 mph79%30.01 "HgN/A
6:00 PM77 °FScattered clouds.13 mph79%29.98 "HgN/A
5:30 PM79 °FLight rain. Partly sunny.6 mph79%29.98 "Hg6 mi
5:00 PM77 °FHeavy rain. Partly sunny.17 mph83%29.98 "HgN/A
4:30 PM81 °FScattered clouds.13 mph70%29.98 "HgN/A
4:00 PM81 °FBroken clouds.16 mph70%29.95 "HgN/A
3:30 PM81 °FMostly cloudy.14 mph70%29.95 "HgN/A
3:00 PM81 °FPartly sunny.14 mph70%29.95 "HgN/A
2:30 PM82 °FScattered clouds.15 mph66%29.95 "HgN/A
2:00 PM84 °FBroken clouds.15 mph62%29.98 "HgN/A
1:30 PM82 °FPartly sunny.17 mph66%29.98 "HgN/A
1:00 PM82 °FPartly sunny.15 mph66%29.98 "HgN/A
12:30 PM84 °FPassing clouds.14 mph66%30.01 "HgN/A
12:00 PM82 °FPassing clouds.15 mph66%30.01 "HgN/A
11:30 AM82 °FPassing clouds.12 mph62%30.04 "HgN/A
11:00 AM82 °FClear.13 mph62%30.04 "HgN/A
10:30 AM82 °FWarm.14 mph62%30.04 "HgN/A
10:00 AM81 °FWarm.9 mph66%30.04 "HgN/A
9:30 AM81 °FPassing clouds.7 mph66%30.01 "HgN/A
9:00 AM79 °FClear.3 mph74%30.01 "HgN/A
Weather by CustomWeather, © 2016

See weather overviewHow to use our weather pages